Regional Weather Roundup
Issued by NWS

Home | Current Version | Previous Version | Graphics & Text | Print | Product List | Glossary On
Versions: 1 2 3 4 5 6 7 8 9 10 11 12 13 14 15 16 17 18 19 20 21 22 23 24 25 26 27 28 29 30 31 32 33 34 35 36 37 38 39 40 41 42 43 44 45 46 47 48 49 50
000
ASUS43 KFSD 260610
RWRSD

WEATHER ROUNDUP FOR SOUTH DAKOTA
NATIONAL WEATHER SERVICE SIOUX FALLS SD
100 AM CDT WED JUL 26 2017

NOTE: "FAIR" INDICATES FEW OR NO CLOUDS BELOW 12,000 FEET WITH NO
SIGNIFICANT WEATHER AND/OR OBSTRUCTIONS TO VISIBILITY.


SDZ001>005-009-010-012>017-260700-
NORTHWEST AND NORTH CENTRAL SOUTH DAKOTA

CITY           SKY/WX    TMP DP  RH WIND       PRES   REMARKS
BUFFALO          N/A     68  54  60 SE7       30.06S
FAITH            N/A     72  55  55 CALM      30.08F
MOBRIDGE       CLOUDY    74  63  68 NE9       30.01S
$$

SDZ012>016-024>037-041>051-057-063-072>074-260700-
SOUTHWEST AND SOUTH CENTRAL SOUTH DAKOTA

CITY           SKY/WX    TMP DP  RH WIND       PRES   REMARKS
RAPID CTY ARPT CLOUDY    72  54  53 N13       30.11S
PIERRE         CLOUDY    75  67  76 NE13      29.96F
CUSTER         CLOUDY    65  49  56 NE14G21   30.22F
PHILIP         CLOUDY    75  60  59 NE10      30.02R
PINE RIDGE     CLOUDY    75  64  68 NE9       30.08R
SPEARFISH      MOCLDY    66  57  72 E7        30.17S
WINNER         FAIR      72  69  90 E8        29.97F
$$

SDZ004>011-016>023-039-040-260700-
NORTHEAST SOUTH DAKOTA

CITY           SKY/WX    TMP DP  RH WIND       PRES   REMARKS
ABERDEEN       CLOUDY    72  69  90 E6        29.99F
WATERTOWN      CLOUDY    72  67  84 CALM      30.02F
BROOKINGS      LGT RAIN  72  69  90 S13       29.98F
SISSETON         N/A     73  72  96 SW3       29.99S
$$

SDZ017-020-022-023-036>040-048>070-260700-
SOUTHEAST SOUTH DAKOTA

CITY           SKY/WX    TMP DP  RH WIND       PRES   REMARKS
SIOUX FALLS    LGT RAIN  71  71 100 NE5       30.01F
HURON          CLOUDY    71  70  96 E6        29.96S
CHAMBERLAIN    CLOUDY    71  70  97 CALM      29.98R
MITCHELL       CLOUDY    72  68  87 SE21G26   29.91F
YANKTON        CLOUDY    71  70  96 N9        29.99F
$$

ABBREVIATIONS USED IN REMARKS
   TC - TEMPERATURE IN CELSIUS
  WCI - WIND CHILL INDEX
   HX - HEAT INDEX
  VSB - VISIBILITY




USA.gov is the U.S. government's official web portal to all federal, state and local government web resources and services.